ZQ-2E DEB, 69630

Orbit data source: Space-Track

ZQ-2E DEB, 69630 is space debris in LEO originally from a launch on Tue, 09 Jun 2026 UTC launched from the Jiuquan Satellite Launch Center, China (JSC). Debris objects in space refer to the collection of defunct objects orbiting the Earth. Examples of debris include non-operational satellites, rocket bodies, and fragments generated from explosions, collisions, or faulty payload assembly.

Loading next visibility...
Identifier
69630, 2026-128E
Orbit
LEO
Country
Flag of CNCN / PRC
Related business
Flag of CNLandspace (CN)
Manufacturer
Lanjian Hangtian
Mission
Spacecraft
Bus & Motor
Unknown
Mass
Unknown
Launch date (UTC)
2026-06-09 (2 weeks ago)
Launch vehicle
Unknown
Launch site
Jiuquan Satellite Launch Center, China (JSC)
Object type
Payload
Rocket body
Debris
Shape & HBR
Unknown
Radar Cross Section
Medium (>0.1 m² and <1 m²)

Expand to show TLE details & history
Last TLE update: 10 hours ago

TLE from 10 hours ago
0 ZQ-2E DEB
1 69630U 26128E   26171.42759791  .00010833  00000-0  12946-3 0  9994
2 69630  54.5306 288.9246 0076865 340.7144  19.0981 15.58136955  1684
Epoch: 2026-06-20T10:15Z
TLE epoch observation values (Epoch: 2026-06-20T10:15:44.459Z)
Latitude
-0.00002°
Longitude
-133.65303°
Altitude
344.969 km
Speed
7.731 km/s
True Right ascension
19h 15m 41s
True Declination
0° 00' 00"
Sunlit
Object was in full shadow at epoch
Visualization orbit readout
Latitude
Unknown
Longitude
Unknown
Altitude
Unknown
Speed
Unknown
Apparent Right ascension
Unknown
Apparent Declination
Unknown
Sunlit
N/A
Visualization observer readout
Local Sidereal Time
07:13:21
Azimuth
Unknown
Elevation
Unknown
Doppler factor
Unknown
Orbital elements
Apogee altitude
445.133 km
Perigee altitude
341.039 km
Semi-major axis
6,771.223 km
Eccentricity
0.00769
Inclination
54.5306°
RAAN
288.9246°
Arg. of periapsis
340.7144°
True anomaly
19.38893°
Mean anomaly
19.0981°
Eccentric anomaly
19.24325°
Mean motion
3.89531 °/min
Orbital period
92.42 mins
BSTAR
0.00012946
Loading maneuver chart data...
Computing Atmospheric mass density...
Loading historical data...
Loading historical data...
Loading historical data...
Loading historical data...
Loading historical data...
Loading historical data...
Loading historical data...

Documentation

Showing up to 5 results
|